• In Germany
  • List of Countries
  • For 7 days
  • Water Temperature
  • Satellite Maps
  • Weather Map
  • Weather Widgets
  • user-avatar
    Login

    Hourly Weather Solden

    Today, 24 January, Wednesday

    Time Temperature Precipitation Wind Pressure Humidity
    00:00 -9°C° 0 mm 1 mps 584 mmHg 65%
    01:00 -8°C° 0 mm 1 mps 584 mmHg 63%
    02:00 -8°C° 0 mm 1 mps 584 mmHg 62%
    03:00 -8°C° 0 mm 1 mps 584 mmHg 62%
    04:00 -9°C° 0 mm 1 mps 584 mmHg 62%
    05:00 -8°C° 0 mm 1 mps 584 mmHg 60%
    06:00 -8°C° 0 mm 1 mps 584 mmHg 58%
    07:00 -8°C° 0 mm 1 mps 584 mmHg 56%
    08:00 -6°C° 0 mm 1 mps 585 mmHg 58%
    09:00 -4°C° 0 mm 1 mps 585 mmHg 61%
    10:00 -2°C° 0 mm 1 mps 586 mmHg 63%
    11:00 -1°C° 0 mm 1 mps 586 mmHg 68%
    12:00 0°C° 0 mm 1 mps 587 mmHg 74%
    13:00 -1°C° 0 mm 2 mps 587 mmHg 79%
    14:00 -2°C° 0 mm 2 mps 586 mmHg 80%
    15:00 -2°C° 0 mm 2 mps 586 mmHg 80%
    16:00 -3°C° 0 mm 2 mps 585 mmHg 81%
    17:00 -5°C° 0 mm 2 mps 585 mmHg 79%
    18:00 -6°C° 0 mm 2 mps 584 mmHg 77%
    19:00 -8°C° 0 mm 2 mps 583 mmHg 74%
    20:00 -8°C° 0 mm 2 mps 583 mmHg 73%
    21:00 -8°C° 0 mm 2 mps 583 mmHg 72%
    22:00 -8°C° 0 mm 2 mps 583 mmHg 70%
    23:00 -8°C° 0 mm 2 mps 583 mmHg 70%

    Tomorrow, 25 January, Thursday

    Time Temperature Precipitation Wind Pressure Humidity
    00:00 -9°C° 0 mm 2 mps 583 mmHg 70%
    01:00 -9°C° 0 mm 2 mps 583 mmHg 70%
    02:00 -9°C° 0 mm 2 mps 582 mmHg 70%
    03:00 -9°C° 0 mm 2 mps 582 mmHg 71%
    04:00 -9°C° 0 mm 2 mps 582 mmHg 71%
    05:00 -9°C° 0 mm 2 mps 582 mmHg 72%
    06:00 -9°C° 0 mm 2 mps 581 mmHg 73%
    07:00 -9°C° 0 mm 2 mps 581 mmHg 74%
    08:00 -7°C° 0 mm 2 mps 582 mmHg 75%
    09:00 -6°C° 0 mm 2 mps 582 mmHg 77%
    10:00 -5°C° 0 mm 2 mps 582 mmHg 78%
    11:00 -4°C° 0 mm 2 mps 582 mmHg 80%
    12:00 -5°C° 0 mm 3 mps 582 mmHg 82%
    13:00 -4°C° 0 mm 3 mps 582 mmHg 84%
    14:00 -4°C° 0 mm 3 mps 582 mmHg 86%
    15:00 -5°C° 0 mm 3 mps 581 mmHg 88%
    16:00 -5°C° 0 mm 3 mps 581 mmHg 90%
    17:00 -6°C° 0.1 mm 3 mps 580 mmHg 91%
    18:00 -5°C° 0.1 mm 2 mps 580 mmHg 92%
    19:00 -6°C° 0.1 mm 2 mps 580 mmHg 93%
    20:00 -6°C° 0.1 mm 2 mps 580 mmHg 93%
    21:00 -6°C° 0.1 mm 2 mps 580 mmHg 94%
    22:00 -6°C° 0.1 mm 2 mps 579 mmHg 94%
    23:00 -6°C° 0.1 mm 2 mps 579 mmHg 94%

    Day after tomorrow, 26 January, Friday

    Time Temperature Precipitation Wind Pressure Humidity
    00:00 -6°C° 0.1 mm 2 mps 579 mmHg 94%
    01:00 -6°C° 0.1 mm 2 mps 578 mmHg 94%
    02:00 -6°C° 0.1 mm 2 mps 578 mmHg 94%
    03:00 -6°C° 0.1 mm 2 mps 578 mmHg 94%
    04:00 -6°C° 0.1 mm 2 mps 578 mmHg 94%
    05:00 -6°C° 0.1 mm 2 mps 578 mmHg 94%
    06:00 -6°C° 0.1 mm 2 mps 578 mmHg 94%
    07:00 -6°C° 0.1 mm 2 mps 578 mmHg 94%
    08:00 -6°C° 0.1 mm 2 mps 578 mmHg 93%
    09:00 -5°C° 0.1 mm 2 mps 578 mmHg 93%
    10:00 -5°C° 0.1 mm 2 mps 579 mmHg 92%
    11:00 -4°C° 0.2 mm 2 mps 579 mmHg 92%
    12:00 -4°C° 0.2 mm 2 mps 579 mmHg 92%
    13:00 -3°C° 0.2 mm 2 mps 579 mmHg 92%
    14:00 -3°C° 0.3 mm 2 mps 579 mmHg 92%
    15:00 -4°C° 0.3 mm 2 mps 579 mmHg 92%
    16:00 -4°C° 0.3 mm 2 mps 579 mmHg 93%
    17:00 -5°C° 0.5 mm 2 mps 579 mmHg 93%
    18:00 -6°C° 0.5 mm 2 mps 579 mmHg 94%
    19:00 -6°C° 0.5 mm 2 mps 579 mmHg 95%
    20:00 -6°C° 0.7 mm 2 mps 579 mmHg 94%
    21:00 -6°C° 0.7 mm 1 mps 579 mmHg 94%
    22:00 -6°C° 0.7 mm 1 mps 579 mmHg 94%
    23:00 -6°C° 0.8 mm 1 mps 579 mmHg 94%

    27 January, Saturday

    Time Temperature Precipitation Wind Pressure Humidity
    00:00 -6°C° 0.8 mm 1 mps 580 mmHg 94%
    01:00 -6°C° 0.8 mm 1 mps 580 mmHg 93%
    02:00 -6°C° 0.8 mm 1 mps 580 mmHg 93%
    03:00 -6°C° 0.8 mm 1 mps 580 mmHg 93%
    04:00 -6°C° 0.8 mm 1 mps 580 mmHg 93%
    05:00 -6°C° 0.5 mm 1 mps 580 mmHg 93%
    06:00 -6°C° 0.5 mm 1 mps 581 mmHg 93%
    07:00 -6°C° 0.5 mm 1 mps 581 mmHg 93%
    08:00 -4°C° 0.4 mm 1 mps 582 mmHg 92%
    09:00 -4°C° 0.4 mm 1 mps 583 mmHg 90%
    10:00 -3°C° 0.4 mm 1 mps 584 mmHg 89%
    11:00 -2°C° 0.2 mm 1 mps 584 mmHg 89%
    12:00 -2°C° 0.2 mm 1 mps 585 mmHg 89%
    13:00 -1°C° 0.2 mm 1 mps 585 mmHg 89%
    14:00 -1°C° 0 mm 1 mps 585 mmHg 90%
    15:00 -1°C° 0 mm 1 mps 586 mmHg 90%
    16:00 -3°C° 0 mm 0 mps 586 mmHg 91%
    17:00 -4°C° 0 mm 0 mps 586 mmHg 91%
    18:00 -5°C° 0 mm 0 mps 586 mmHg 91%
    19:00 -6°C° 0 mm 0 mps 586 mmHg 92%
    20:00 -6°C° 0 mm 1 mps 586 mmHg 91%
    21:00 -7°C° 0 mm 1 mps 586 mmHg 90%
    22:00 -7°C° 0 mm 1 mps 586 mmHg 89%
    23:00 -7°C° 0 mm 1 mps 586 mmHg 88%

    28 January, Sunday

    Time Temperature Precipitation Wind Pressure Humidity
    00:00 -8°C° 0 mm 1 mps 586 mmHg 87%
    01:00 -8°C° 0 mm 1 mps 586 mmHg 85%
    02:00 -8°C° 0 mm 1 mps 586 mmHg 85%
    03:00 -8°C° 0 mm 1 mps 586 mmHg 84%
    04:00 -8°C° 0 mm 1 mps 586 mmHg 83%
    05:00 -8°C° 0 mm 1 mps 586 mmHg 82%
    06:00 -9°C° 0 mm 1 mps 587 mmHg 82%
    07:00 -9°C° 0 mm 1 mps 587 mmHg 81%
    08:00 -7°C° 0 mm 1 mps 588 mmHg 80%
    09:00 -4°C° 0 mm 1 mps 589 mmHg 79%
    10:00 -3°C° 0 mm 1 mps 590 mmHg 78%
    11:00 -2°C° 0 mm 1 mps 590 mmHg 80%
    12:00 -2°C° 0 mm 0 mps 591 mmHg 82%
    13:00 -1°C° 0 mm 0 mps 591 mmHg 84%
    14:00 -1°C° 0 mm 0 mps 591 mmHg 85%
    15:00 -2°C° 0 mm 0 mps 590 mmHg 85%
    16:00 -2°C° 0 mm 0 mps 590 mmHg 86%
    17:00 -3°C° 0 mm 1 mps 589 mmHg 85%
    18:00 -4°C° 0 mm 1 mps 589 mmHg 83%
    19:00 -7°C° 0 mm 1 mps 588 mmHg 81%
    20:00 -7°C° 0 mm 1 mps 588 mmHg 78%
    21:00 -8°C° 0 mm 1 mps 588 mmHg 74%
    22:00 -8°C° 0 mm 1 mps 588 mmHg 71%
    23:00 -8°C° 0 mm 1 mps 588 mmHg 69%

    29 January, Monday

    Time Temperature Precipitation Wind Pressure Humidity
    00:00 -8°C° 0 mm 1 mps 588 mmHg 66%
    01:00 -8°C° 0 mm 1 mps 588 mmHg 64%
    02:00 -8°C° 0 mm 1 mps 588 mmHg 62%
    03:00 -8°C° 0 mm 1 mps 588 mmHg 60%
    04:00 -8°C° 0 mm 1 mps 588 mmHg 58%
    05:00 -8°C° 0 mm 1 mps 588 mmHg 56%
    06:00 -8°C° 0 mm 1 mps 588 mmHg 55%
    07:00 -8°C° 0 mm 1 mps 588 mmHg 53%
    08:00 -6°C° 0 mm 1 mps 589 mmHg 56%
    09:00 -3°C° 0 mm 1 mps 589 mmHg 59%
    10:00 -2°C° 0 mm 1 mps 590 mmHg 61%
    11:00 -1°C° 0 mm 1 mps 590 mmHg 67%
    12:00 -1°C° 0 mm 0 mps 591 mmHg 72%
    13:00 0°C° 0 mm 0 mps 591 mmHg 77%
    14:00 0°C° 0 mm 0 mps 590 mmHg 77%
    15:00 -1°C° 0 mm 0 mps 590 mmHg 77%
    16:00 -1°C° 0 mm 0 mps 589 mmHg 76%
    17:00 -3°C° 0 mm 0 mps 588 mmHg 75%
    18:00 -4°C° 0 mm 1 mps 588 mmHg 74%
    19:00 -6°C° 0 mm 1 mps 587 mmHg 73%
    20:00 -6°C° 0 mm 1 mps 587 mmHg 71%
    21:00 -7°C° 0 mm 1 mps 587 mmHg 70%
    22:00 -7°C° 0 mm 1 mps 586 mmHg 68%
    23:00 -7°C° 0 mm 1 mps 586 mmHg 67%
    Show more